CAPE
0 0 0 0 0 0 0 0 0 0 0 0 0 0 0 0 0 0 0 0 0 0 0 0 5 21 59 248 405 305 356 340 603 708 801 597 506 475 398 329 680 656 426 354 288 261 85 3 0
0 0 0 0 0 0 0 0 0 0 0 0 0 0 0 0 0 0 0 0 0 0 0 0 3 12 14 76 351 355 342 384 422 572 720 763 633 530 482 390 722 599 516 348 270 159 5 0 7
0 0 0 0 0 0 0 0 0 0 0 0 0 0 0 0 0 0 0 0 0 0 0 0 0 7 11 23 166 355 354 315 307 292 512 683 655 529 427 497 583 481 374 262 148 162 7 5 30
0 0 0 0 0 0 0 0 0 0 0 0 0 0 0 0 0 0 0 0 0 0 0 0 0 2 8 8 64 273 390 286 277 224 241 415 617 619 415 388 521 507 210 16 37 85 21 24 29
0 0 0 0 0 0 0 0 0 0 0 0 0 0 0 0 0 0 0 0 0 0 0 0 0 0 1 7 27 67 239 117 148 146 150 200 200 607 451 352 327 374 322 99 14 104 99 106 55
0 0 0 0 0 0 0 0 0 0 0 0 0 0 0 0 0 0 0 0 0 0 0 0 0 0 0 0 6 15 50 124 8 0 0 22 148 204 523 369 348 188 251 83 193 137 86 65 26
0 0 0 0 0 0 0 0 0 0 0 0 0 0 0 0 0 0 0 0 0 0 0 0 0 0 0 0 0 0 8 79 184 12 0 32 114 99 271 241 350 343 178 98 248 202 69 46 18
0 0 0 0 0 0 0 0 0 0 0 0 0 0 0 0 0 0 0 0 0 0 0 0 0 0 0 0 0 0 2 12 48 54 24 18 22 99 99 133 180 195 186 257 347 247 106 40 6
0 0 0 0 0 0 0 0 0 0 0 0 0 0 0 0 0 0 0 0 0 0 0 0 0 0 0 0 0 0 0 2 9 21 2 41 77 22 7 70 91 178 156 220 255 96 63 18 0
0 0 0 0 0 0 0 0 0 0 0 0 0 0 0 0 0 0 0 0 0 0 0 0 0 0 0 0 0 0 0 0 4 12 2 17 13 27 29 33 21 135 73 173 131 38 8 0 0
0 0 0 0 0 0 0 0 0 0 0 0 0 0 0 0 0 0 0 0 0 0 0 0 0 0 0 0 0 0 0 0 2 6 9 12 117 9 28 72 3 16 41 129 36 1 0 0 0
0 0 0 0 0 0 0 0 0 0 0 0 0 0 0 0 0 0 0 0 0 0 0 0 0 0 0 0 0 0 0 0 0 5 5 9 36 75 21 141 128 28 88 11 0 0 0 0 0
0 0 0 0 0 0 0 0 0 0 0 0 0 0 0 0 0 0 0 0 0 0 0 0 0 0 0 0 0 0 0 0 0 1 8 8 8 39 2 19 249 182 127 1 0 0 0 0 0
0 0 0 0 0 0 0 0 0 0 0 0 0 0 0 0 0 0 0 0 0 0 0 0 0 0 0 0 0 0 0 0 1 0 5 2 7 12 8 11 129 161 98 3 1 2 1 0 0
0 0 0 0 0 0 0 0 0 0 0 0 0 0 0 0 0 0 0 0 0 0 0 0 0 0 0 0 0 0 0 0 0 6 0 1 2 11 7 8 137 96 93 8 2 14 2 3 0
0 0 0 0 0 0 0 0 0 0 0 0 0 0 0 0 0 0 0 0 0 0 0 0 0 0 0 0 0 0 0 0 0 2 2 1 0 1 10 16 70 110 74 40 11 12 13 14 2
0 0 0 0 0 0 0 0 0 0 0 0 0 0 0 0 0 0 0 0 0 0 0 0 0 0 0 0 0 0 0 0 0 0 3 0 1 0 3 4 68 120 53 64 15 3 15 12 1
0 0 0 0 0 0 0 0 0 0 0 0 0 0 0 0 0 0 0 0 0 0 0 0 0 0 0 0 0 0 0 0 0 2 0 0 0 0 3 4 16 114 61 44 23 1 13 5 0
0 0 0 0 0 0 0 0 0 0 0 0 0 0 0 0 0 0 0 0 0 0 0 0 0 0 0 0 0 0 0 0 0 1 0 0 0 1 5 6 13 18 59 54 11 0 0 0 0
0 0 0 0 0 0 0 0 0 0 0 0 0 0 0 0 0 0 0 0 0 0 0 0 0 0 0 0 0 0 0 0 0 3 0 0 0 2 4 6 23 29 62 36 10 0 1 0 0
0 0 0 0 0 0 0 0 0 0 0 0 0 0 0 0 0 0 0 0 0 0 0 0 0 0 0 0 0 0 0 0 6 0 0 0 0 2 4 4 33 52 75 17 1 0 0 0 0
0 0 0 0 0 0 0 0 0 0 0 0 0 0 0 0 0 0 0 0 0 0 0 0 0 0 0 0 0 0 0 0 0 0 0 0 1 1 3 2 72 85 102 33 1 2 0 0 0
0 0 0 0 0 0 0 0 0 0 0 0 0 0 0 0 0 0 0 0 0 0 0 0 0 0 0 0 0 0 0 0 0 0 0 0 1 3 1 3 48 72 85 20 0 1 0 0 0
0 0 0 0 0 0 0 0 0 0 0 0 0 0 0 0 0 0 0 0 0 0 0 0 0 0 0 0 0 0 0 0 0 0 0 2 0 2 0 1 34 36 29 1 0 10 0 0 0
0 0 0 0 0 0 0 0 0 0 0 0 0 0 0 0 0 0 0 0 0 0 0 0 0 0 0 0 0 0 0 0 0 0 0 1 1 2 1 2 1 10 10 0 0 0 0 0 0
0 0 0 0 0 0 0 0 0 0 0 0 0 0 0 0 0 0 0 0 0 0 0 0 0 0 0 0 0 0 0 0 0 0 0 1 1 1 1 1 0 0 2 5 0 0 0 0 0
0 0 0 0 0 0 0 0 0 0 0 0 0 0 0 0 0 0 0 0 0 0 0 0 0 0 0 0 0 0 0 0 0 0 0 0 0 0 1 0 0 0 0 1 6 2 1 0 0
0 0 0 0 0 0 0 0 0 0 0 0 0 0 0 0 0 0 0 0 0 0 0 0 0 0 0 0 0 0 0 0 0 0 0 0 0 0 0 0 0 0 0 0 10 1 1 0 0
0 0 0 0 0 0 0 0 0 0 0 0 0 0 0 0 0 0 0 0 0 0 0 0 0 0 0 0 0 0 0 0 0 0 0 0 0 0 0 0 0 0 0 0 0 1 0 0 0
0 0 0 0 0 0 0 0 0 0 0 0 0 0 0 0 0 0 0 0 0 0 0 0 0 0 0 0 0 0 0 0 0 0 0 0 0 0 0 0 0 0 0 0 0 0 0 0 0
CIN
0 0 0 0 0 0 0 0 0 0 0 0 0 0 0 0 0 0 0 0 0 0 0 0 0 -15 -62 -1 -1 -11 -11 -3 -1 -1 0 0 0 -1 0 -2 0 -3 0 0 0 0 -1 0 0
0 0 0 0 0 0 0 0 0 0 0 0 0 0 0 0 0 0 0 0 0 0 0 0 0 -3 -45 -59 0 -6 -16 -8 -1 -2 0 0 0 -1 -2 0 0 0 0 0 0 0 0 0 -5
0 0 0 0 0 0 0 0 0 0 0 0 0 0 0 0 0 0 0 0 0 0 0 0 0 0 0 -89 -21 -2 -11 -17 -9 -4 -3 -1 0 -3 -6 -3 -1 0 0 0 -3 -1 -39 0 0
0 0 0 0 0 0 0 0 0 0 0 0 0 0 0 0 0 0 0 0 0 0 0 0 0 0 0 -12 -47 -11 -4 -13 -18 -13 -5 -4 -2 -2 -6 -8 -1 -1 -1 -41 -24 -18 0 -1 -3
0 0 0 0 0 0 0 0 0 0 0 0 0 0 0 0 0 0 0 0 0 0 0 0 0 0 0 -17 -158 -77 -14 -38 -25 -42 -15 -3 -5 -2 -5 -7 -1 -1 -1 -9 -47 -1 -12 -3 -2
0 0 0 0 0 0 0 0 0 0 0 0 0 0 0 0 0 0 0 0 0 0 0 0 0 0 0 0 0 -213 -63 -35 -101 0 0 -41 -7 -5 -4 -7 -4 -13 -1 -4 -1 0 -5 -13 -10
0 0 0 0 0 0 0 0 0 0 0 0 0 0 0 0 0 0 0 0 0 0 0 0 0 0 0 0 0 0 -33 -66 -13 -102 0 -41 -7 -59 -7 -13 -2 -1 -4 -4 0 0 -3 -8 -17
0 0 0 0 0 0 0 0 0 0 0 0 0 0 0 0 0 0 0 0 0 0 0 0 0 0 0 0 0 0 0 -140 -33 -28 -85 -57 -62 -16 -33 -18 -3 0 -1 -1 0 -1 -3 -54 -22
0 0 0 0 0 0 0 0 0 0 0 0 0 0 0 0 0 0 0 0 0 0 0 0 0 0 0 0 0 0 0 0 -40 -73 -29 -66 -38 -64 -59 -69 -23 -7 -1 -1 0 -5 -3 -13 0
0 0 0 0 0 0 0 0 0 0 0 0 0 0 0 0 0 0 0 0 0 0 0 0 0 0 0 0 0 0 0 0 -39 -65 0 -17 -99 -116 -71 -115 -123 -9 -2 -7 -3 -21 -11 0 0
0 0 0 0 0 0 0 0 0 0 0 0 0 0 0 0 0 0 0 0 0 0 0 0 0 0 0 0 0 0 0 0 0 -12 -66 -49 -13 -64 -81 -98 -64 -79 -23 -2 -37 -7 0 0 0
0 0 0 0 0 0 0 0 0 0 0 0 0 0 0 0 0 0 0 0 0 0 0 0 0 0 0 0 0 0 0 0 0 0 0 0 -52 -34 -111 -39 -42 -61 -16 -59 0 0 0 0 0
0 0 0 0 0 0 0 0 0 0 0 0 0 0 0 0 0 0 0 0 0 0 0 0 0 0 0 0 0 0 0 0 0 -1 0 0 0 -24 -51 -12 0 -8 -4 -1 0 0 0 0 0
0 0 0 0 0 0 0 0 0 0 0 0 0 0 0 0 0 0 0 0 0 0 0 0 0 0 0 0 0 0 0 0 -1 0 0 0 0 0 0 -25 -3 -15 -11 -1 0 -1 0 0 0
0 0 0 0 0 0 0 0 0 0 0 0 0 0 0 0 0 0 0 0 0 0 0 0 0 0 0 0 0 0 0 0 0 0 0 -3 0 0 -1 -28 -1 -6 -27 -12 0 0 0 0 0
0 0 0 0 0 0 0 0 0 0 0 0 0 0 0 0 0 0 0 0 0 0 0 0 0 0 0 0 0 0 0 0 0 0 0 0 0 0 0 -3 -5 -1 -26 -49 -38 0 0 0 0
0 0 0 0 0 0 0 0 0 0 0 0 0 0 0 0 0 0 0 0 0 0 0 0 0 0 0 0 0 0 0 0 0 0 0 0 0 0 0 0 -3 -1 -7 -16 -77 -35 0 -23 0
0 0 0 0 0 0 0 0 0 0 0 0 0 0 0 0 0 0 0 0 0 0 0 0 0 0 0 0 0 0 0 0 0 0 0 0 0 0 0 0 -3 -2 -9 -28 -23 -9 -30 -49 0
0 0 0 0 0 0 0 0 0 0 0 0 0 0 0 0 0 0 0 0 0 0 0 0 0 0 0 0 0 0 0 0 0 0 0 0 0 0 0 0 -13 -2 -8 -49 -20 0 0 0 0
0 0 0 0 0 0 0 0 0 0 0 0 0 0 0 0 0 0 0 0 0 0 0 0 0 0 0 0 0 0 0 0 0 0 0 0 0 0 0 0 -6 -3 -2 -6 -29 0 -61 0 0
0 0 0 0 0 0 0 0 0 0 0 0 0 0 0 0 0 0 0 0 0 0 0 0 0 0 0 0 0 0 0 0 0 0 0 0 0 0 0 0 -6 -1 -2 -12 -28 0 -30 0 0
0 0 0 0 0 0 0 0 0 0 0 0 0 0 0 0 0 0 0 0 0 0 0 0 0 0 0 0 0 0 0 0 0 0 0 0 0 0 0 0 -4 -3 0 -4 0 -48 -13 -8 0
0 0 0 0 0 0 0 0 0 0 0 0 0 0 0 0 0 0 0 0 0 0 0 0 0 0 0 0 0 0 0 0 0 0 0 0 0 0 0 -3 -2 -1 0 -14 -1 -6 0 0 0
0 0 0 0 0 0 0 0 0 0 0 0 0 0 0 0 0 0 0 0 0 0 0 0 0 0 0 0 0 0 0 0 0 0 0 0 0 0 0 0 -4 -4 -12 -16 0 -58 0 0 0
0 0 0 0 0 0 0 0 0 0 0 0 0 0 0 0 0 0 0 0 0 0 0 0 0 0 0 0 0 0 0 0 0 0 0 0 0 0 0 0 0 -14 -12 0 0 0 0 0 0
0 0 0 0 0 0 0 0 0 0 0 0 0 0 0 0 0 0 0 0 0 0 0 0 0 0 0 0 0 0 0 0 0 0 0 0 0 0 0 0 0 0 -25 -16 -3 0 0 0 0
0 0 0 0 0 0 0 0 0 0 0 0 0 0 0 0 0 0 0 0 0 0 0 0 0 0 0 0 0 0 0 0 0 0 0 0 0 0 0 0 0 0 0 -10 -43 -69 -116 0 0
0 0 0 0 0 0 0 0 0 0 0 0 0 0 0 0 0 0 0 0 0 0 0 0 0 0 0 0 0 0 0 0 0 0 0 0 0 0 0 0 0 0 0 0 -41 -84 0 0 0
0 0 0 0 0 0 0 0 0 0 0 0 0 0 0 0 0 0 0 0 0 0 0 0 0 0 0 0 0 0 0 0 0 0 0 0 0 0 0 0 0 0 0 0 0 -22 0 0 0
0 0 0 0 0 0 0 0 0 0 0 0 0 0 0 0 0 0 0 0 0 0 0 0 0 0 0 0 0 0 0 0 0 0 0 0 0 0 0 0 0 0 0 0 0 0 0 0 0
Wind_Speed
6 6 2 6 6 6 0 2 1 1 1 2 3 3 4 1 1 2 2 3 6 7 10 10 18 21 22 20 15 8 5 7 8 8 9 9 10 10 12 14 11 14 16 16 16 16 15 15 16
4 2 5 3 7 4 5 2 2 2 2 5 4 2 3 1 0 2 2 2 4 5 7 9 16 18 19 21 20 10 8 5 7 9 9 10 10 11 13 13 11 15 17 17 16 15 14 15 17
3 3 5 6 4 4 4 3 3 1 1 1 4 2 2 1 2 1 0 0 4 6 6 8 15 17 17 18 19 14 7 4 4 6 8 10 10 11 12 12 14 15 14 13 15 16 15 16 16
3 5 5 6 2 2 3 2 2 2 0 5 2 1 1 1 2 3 4 2 4 5 6 9 16 16 17 17 16 18 10 5 5 4 3 8 9 10 11 12 13 13 14 11 12 16 16 16 15
5 3 5 4 2 2 2 1 3 1 1 3 2 2 2 2 4 4 4 4 4 5 5 6 15 16 16 16 17 15 12 7 6 9 10 7 6 9 10 13 15 15 14 13 12 14 15 15 13
5 3 5 3 3 2 3 1 3 1 1 3 1 2 3 0 1 3 3 4 4 5 5 6 11 16 17 16 16 18 15 5 3 2 6 9 9 6 11 15 17 18 16 15 14 14 13 15 13
6 4 4 5 5 1 4 2 3 3 2 4 2 2 2 2 3 3 4 3 4 5 5 6 7 10 14 16 16 17 17 13 5 6 6 5 8 5 10 14 17 22 22 18 15 14 13 13 12
5 5 3 3 6 4 2 1 2 3 4 1 3 4 4 3 3 4 3 3 4 5 6 6 7 7 7 8 13 17 17 16 11 1 4 6 3 5 8 10 17 20 22 20 17 14 14 12 12
2 5 3 5 6 2 1 1 1 1 2 2 2 2 2 3 3 1 4 4 4 4 5 5 6 6 7 7 8 13 15 16 11 9 3 1 4 3 3 6 7 13 19 18 17 17 13 11 9
5 4 6 2 3 3 2 2 2 3 4 3 3 2 1 1 1 3 4 5 5 5 5 4 6 6 6 7 7 6 8 8 7 5 5 3 2 3 3 6 6 11 11 18 17 15 12 9 4
1 4 5 2 2 1 1 2 1 1 6 7 6 5 5 3 4 5 5 4 4 3 3 5 5 6 6 5 4 4 3 5 5 8 5 4 1 2 2 1 2 4 7 6 8 8 4 5 4
4 1 2 4 2 2 3 1 4 6 9 2 8 3 3 6 6 6 7 5 3 3 4 5 5 5 6 4 3 4 4 4 4 6 6 5 2 2 1 1 2 4 6 8 7 4 5 3 5
3 2 2 1 1 3 1 5 5 8 10 7 5 4 7 7 8 7 7 5 3 5 4 5 4 4 5 5 3 3 3 4 6 5 4 3 4 3 6 3 3 4 6 8 8 7 4 2 4
2 3 2 1 2 2 3 3 4 6 1 4 6 9 8 8 8 6 6 6 5 3 5 3 4 4 5 5 5 4 3 5 4 4 4 5 5 4 5 5 4 4 4 9 9 8 7 4 1
4 3 3 3 0 3 3 6 10 8 2 4 8 8 7 8 8 11 8 5 5 4 4 3 4 3 5 6 5 4 4 5 4 3 4 5 6 5 5 6 4 5 6 9 8 8 7 4 2
3 4 3 2 2 1 5 10 6 4 5 9 9 8 7 9 8 8 7 6 6 4 3 3 2 4 5 5 5 4 4 4 4 3 3 5 6 7 5 3 7 6 4 10 9 8 8 8 5
5 2 3 5 2 0 4 8 5 4 3 9 9 8 7 9 9 8 5 7 6 3 3 3 3 5 6 5 5 5 5 3 3 3 3 5 6 6 5 5 5 8 6 7 10 8 7 7 6
3 2 3 5 2 2 5 19 15 11 9 11 9 8 7 8 8 8 4 5 4 2 1 2 3 4 5 4 5 3 3 3 4 3 3 6 4 6 6 6 7 6 7 7 7 11 7 6 7
2 1 3 4 2 4 5 10 17 12 7 10 8 7 7 6 4 2 4 3 3 0 1 3 4 4 3 2 3 3 3 4 3 3 4 6 6 6 7 7 9 7 8 10 10 9 9 3 4
2 2 4 5 2 3 6 17 13 5 6 7 7 7 7 4 5 2 3 4 3 1 2 3 4 4 3 2 2 2 3 3 4 4 4 4 6 7 8 9 10 11 7 10 10 11 7 3 5
1 3 1 3 8 2 8 7 5 3 4 3 4 3 4 6 5 2 4 6 3 3 2 4 4 4 2 3 3 3 3 3 2 4 4 5 8 7 9 11 12 11 11 9 11 10 11 6 3
2 1 1 3 5 4 4 6 4 4 8 5 7 6 7 6 3 1 4 5 6 3 1 3 3 4 3 5 4 4 3 3 2 4 5 7 8 10 10 13 13 12 9 10 10 8 8 5 9
1 1 1 1 2 3 1 3 8 3 4 5 7 6 6 6 6 4 3 6 5 3 1 2 4 4 4 5 4 4 4 4 4 5 7 8 7 10 8 10 12 13 8 9 10 9 9 6 6
1 2 4 4 2 4 1 3 6 3 4 5 4 3 4 6 5 3 2 5 3 2 1 2 3 3 5 4 5 5 5 6 5 6 6 6 6 7 9 12 9 11 10 10 9 10 11 9 7
2 3 5 8 6 6 2 2 10 5 6 5 6 7 6 6 4 4 5 4 3 3 2 1 3 3 4 5 5 5 6 5 5 5 5 7 7 6 10 10 6 8 10 9 9 9 9 9 8
2 3 7 5 1 7 1 6 5 5 6 5 5 6 5 7 5 5 4 4 4 3 3 2 3 3 5 4 5 5 5 4 4 4 4 4 5 7 10 8 8 4 9 9 9 7 7 7 5
2 2 2 7 2 3 4 8 8 5 8 6 8 6 9 8 4 3 3 3 3 2 2 2 3 2 4 5 5 4 4 5 5 6 4 3 5 5 7 7 7 6 6 6 8 6 7 7 5
1 4 3 4 1 4 6 6 6 5 8 8 9 9 9 5 5 2 3 4 2 2 2 3 2 2 2 3 3 3 4 4 5 5 5 6 5 7 9 9 8 6 5 4 5 5 6 7 4
2 1 3 4 4 5 2 9 8 7 6 8 9 8 8 7 6 3 2 3 4 2 1 3 3 3 4 3 2 4 4 4 4 4 6 7 6 6 6 5 5 5 4 3 4 4 6 7 6
1 2 3 5 5 0 3 11 3 6 4 5 9 8 6 5 6 4 4 4 4 3 3 2 3 3 3 3 3 4 4 4 5 5 4 5 6 6 6 5 5 5 4 4 4 5 5 7 6
Wind_Direction
338 329 73 37 60 59 122 205 229 53 286 318 6 33 122 122 237 228 239 26 356 345 347 348 344 347 355 353 338 299 286 260 230 209 190 186 184 178 166 163 169 151 142 136 126 121 117 124 118
338 340 39 82 84 71 268 286 186 247 229 143 75 24 28 269 70 286 55 8 15 357 348 348 344 348 353 352 349 309 289 285 254 234 202 187 190 195 182 175 158 152 145 135 132 132 127 123 124
345 42 77 87 104 171 203 200 224 268 11 250 108 55 158 257 279 263 358 66 6 14 354 346 349 349 353 352 348 335 318 271 284 238 235 199 191 207 195 186 150 144 138 142 141 138 136 131 131
61 14 34 81 120 220 213 194 253 173 235 41 123 21 264 175 220 227 329 74 22 3 360 351 356 354 349 349 348 351 341 270 94 36 274 248 197 208 205 190 165 137 130 144 153 144 146 143 142
38 62 64 72 182 210 229 180 187 240 310 353 353 259 248 261 254 318 345 77 24 357 358 353 359 356 353 350 348 346 337 359 38 62 36 351 255 209 217 189 164 141 140 155 158 156 151 145 128
47 84 74 178 226 233 285 216 165 190 292 290 113 151 251 293 310 320 112 93 39 6 355 355 355 353 352 352 350 347 344 320 322 11 45 359 342 264 224 196 175 151 156 146 166 156 142 136 117
106 85 173 145 198 221 225 163 177 194 289 277 134 235 287 261 231 119 108 102 27 8 3 354 350 347 348 348 348 349 341 335 330 203 186 251 289 299 255 204 189 162 149 156 155 151 145 126 112
101 89 109 178 188 239 217 103 140 169 258 79 151 241 276 249 155 141 124 42 7 3 360 354 349 344 342 333 345 347 338 339 322 284 153 195 208 258 271 218 206 165 159 157 153 144 142 129 118
121 71 185 203 150 231 8 171 309 334 248 229 218 207 239 126 135 37 354 345 350 349 354 349 344 341 343 329 351 345 337 333 329 303 314 162 106 63 355 292 217 189 159 156 144 138 135 120 125
74 116 207 183 159 176 183 142 301 351 320 270 274 254 218 172 230 287 298 308 342 338 331 343 340 342 341 340 335 334 335 329 328 299 276 286 132 110 360 332 249 173 171 155 143 144 130 126 141
73 173 160 175 169 175 207 188 328 311 294 231 244 241 220 244 258 269 276 251 237 259 314 332 332 332 339 336 334 329 328 328 328 327 342 260 327 137 190 356 325 164 169 152 116 115 115 135 145
87 70 159 175 172 139 226 256 294 195 231 271 246 236 203 250 259 254 258 269 283 321 295 309 330 333 326 325 327 324 323 332 317 315 346 295 322 198 151 321 228 194 158 141 125 121 117 121 140
96 168 117 141 200 254 260 248 245 252 252 245 228 243 256 264 265 268 250 251 225 246 277 293 310 316 314 321 319 324 324 313 307 305 310 299 300 253 186 209 191 174 157 150 132 121 128 195 238
114 101 102 240 287 271 260 280 5 255 194 205 207 238 249 253 251 266 254 250 240 263 270 272 299 310 331 327 325 317 315 297 297 306 312 310 281 279 190 182 192 189 164 152 137 163 161 161 57
126 69 323 236 294 288 50 277 232 239 150 237 240 252 275 267 263 245 236 237 227 235 259 280 297 338 341 324 317 320 308 307 284 280 311 300 297 292 293 202 186 236 152 132 141 164 142 145 164
61 53 8 245 120 304 72 274 259 274 186 246 248 257 272 281 266 265 231 211 207 217 262 291 336 325 327 323 310 308 303 295 284 304 295 303 305 299 289 276 205 178 160 138 152 167 165 168 175
16 228 229 314 177 298 135 274 299 351 225 271 271 273 291 295 307 295 212 192 193 208 267 302 319 330 320 315 307 306 300 283 297 291 307 306 306 302 283 277 237 174 163 148 154 164 177 169 176
228 229 264 254 339 272 257 266 274 269 261 257 274 284 274 292 290 309 172 180 179 200 31 300 314 328 322 322 313 314 320 348 295 281 304 311 294 288 271 262 247 197 174 152 160 165 178 178 177
2 341 284 269 48 312 239 275 282 279 249 256 267 264 268 274 285 42 134 161 190 114 328 300 319 323 344 347 336 331 321 312 288 300 305 302 292 288 261 259 245 207 191 174 176 156 171 161 147
37 298 284 283 319 357 327 294 280 293 256 222 231 232 246 277 307 267 192 194 217 260 276 325 325 346 341 334 309 286 297 294 281 291 300 299 294 286 273 258 231 196 189 171 175 170 154 129 165
179 218 264 250 324 244 312 294 343 321 269 278 249 215 211 238 268 253 195 213 225 242 298 315 327 335 342 350 322 335 299 273 282 322 320 313 309 294 281 268 211 185 179 172 172 176 168 148 190
272 127 36 328 28 287 7 281 301 330 303 287 274 253 256 261 273 164 197 209 221 233 279 307 342 352 346 356 1 26 317 319 309 304 304 319 313 307 290 256 199 176 172 166 169 172 173 160 173
251 105 86 41 356 355 342 66 270 350 298 296 301 269 251 257 244 255 218 211 218 148 226 321 352 349 357 6 10 7 336 309 315 315 331 331 319 300 311 226 180 168 165 153 157 164 167 173 159
168 124 60 56 49 21 355 105 284 232 227 288 299 314 255 264 249 245 187 152 181 132 38 6 360 4 356 12 360 14 339 333 343 340 341 330 322 317 4 335 175 162 162 154 164 171 180 179 184
87 55 342 357 10 221 14 18 250 274 250 244 282 290 280 270 245 242 197 200 207 188 79 5 33 2 346 355 17 8 347 334 324 339 334 334 340 332 12 309 33 148 147 154 158 177 180 179 174
80 126 149 213 286 279 16 239 251 231 292 272 303 287 272 272 262 241 238 187 206 172 103 62 41 2 353 4 10 5 350 327 323 335 331 328 343 342 338 342 13 48 128 149 166 171 169 158 155
218 70 148 100 54 39 254 284 295 276 285 288 277 284 266 271 282 260 154 158 181 182 112 105 89 4 22 4 357 360 351 340 327 343 324 336 331 346 315 8 14 352 87 126 152 159 155 156 154
20 164 78 7 30 311 294 280 247 259 253 255 260 249 260 258 273 247 180 155 175 191 138 106 82 88 28 34 8 16 341 338 338 333 344 346 347 347 355 360 3 3 44 106 141 132 150 157 142
115 22 61 111 124 169 275 276 208 217 221 228 246 245 249 242 247 239 190 155 165 158 153 109 81 43 41 46 15 6 4 348 339 354 349 343 350 350 359 350 347 14 18 28 119 122 137 126 127
321 181 179 122 247 108 149 272 214 225 252 247 272 274 262 243 237 224 172 175 162 185 163 151 100 79 36 0 46 8 8 5 351 348 341 339 346 359 346 350 8 23 20 11 108 104 115 123 113